Location: Le Rocchette
(44.3500°N, 7.8333°E)
Time: 17:29:49
(UTC+00:00)

Cosmos 2228 Rocket - Pass Details

Date: 17 November 2019
Orbit: 619 x 651 km, 82.5° (Epoch: 05 December)

Event Time Altitude Azimuth Distance (km) Brightness Sun altitude
Rises 05:39:25 0° 348° (NNW) 2,979 6.3 -8.6°
Reaches altitude 10° 05:41:41 10° 346° (NNW) 2,065 5.4 -8.3°
Maximum altitude 05:46:14 66° 265° (W) 713 3.2 -7.5°
Drops below altitude 10° 05:50:45 10° 183° (S) 2,050 6.0 -6.7°
Sets 05:53:00 0° 181° (S) 2,954 6.8 -6.4°
